Terminal Aerodrome Forecast
Issued by NWS Cleveland, OH

Home | Current Version | Previous Version | Text Only | Print | Product List | Glossary Off
Versions: 1 2 3 4 5 6 7 8 9 10 11 12 13 14 15 16 17 18 19 20 21 22 23 24 25 26 27 28

000
FTUS41 KCLE 171100
TAFERI
TAF
KERI 171127Z 1712/1812 22010G18KT P6SM SCT015 OVC030
      TEMPO 1712/1714 -RA BKN015 OVC030
     FM171500 20015G25KT P6SM BKN025 OVC050
     FM172000 21015G25KT P6SM OVC050
     FM180000 21012KT P6SM BKN050
     FM180400 24010G20KT 4SM -SHRA BR SCT015 OVC025
     FM180900 27015G25KT 3SM -SHRA BR SCT009 OVC015=

USA.gov is the U.S. government's official web portal to all federal, state and local government web resources and services.